WX4GPS Weather Reports


time (UTC)temp
C
wind
direction
speed
KPH
gust
KPH
rain 1hr
cm
rain 24hr
cm
rain mn
cm
humidity
%
barometer
mb
20260503200002 20 252 6.4 22.5 0.00 0.00 0.00
20260503195025 21 278 6.4 24.1 0.00 0.00 0.00
20260503194002 21 162 9.7 17.7 0.00 0.00 0.00
20260503193024 21 267 1.6 16.1 0.00 0.00 0.00
20260503192003 20 221 0.0 22.5 0.00 0.00 0.00
20260503191002 20 165 9.7 22.5 0.00 0.00 0.00
20260503190003 20 132 3.2 20.9 0.00 0.00 0.00
20260503185045 18 218 6.4 17.7 0.00 0.00 0.00
20260503184003 16 218 1.6 20.9 0.00 0.00 0.00
20260503183025 16 220 8.0 24.1 0.00 0.00 0.00
20260503182002 16 170 6.4 20.9 0.00 0.00 0.00
20260503181003 16 253 6.4 20.9 0.00 0.00 0.00
20260503180003 16 221 0.0 22.5 0.00 0.00 0.00
20260503175003 16 263 3.2 19.3 0.00 0.00 0.00
20260503174024 16 217 3.2 20.9 0.00 0.00 0.00
20260503173045 15 263 0.0 19.3 0.00 0.00 0.00
20260503172002 15 190 1.6 14.5 0.00 0.00 0.00
20260503171025 15 266 3.2 16.1 0.00 0.00 0.00
20260503151002 16 244 4.8 19.3 0.00 0.00 0.00
20260503131024 10 228 0.0 4.8 0.00 0.00 0.00
20260503081002 -1 293 0.0 0.0 0.00 0.00 0.00
20260503072003 0 293 0.0 0.0 0.00 0.00 0.00
20260503071003 0 293 0.0 0.0 0.00 0.00 0.00
20260503055003 0 293 0.0 0.0 0.00 0.00 0.00
20260503054003 0 293 0.0 0.0 0.00 0.00 0.00
20260503053045 1 293 0.0 0.0 0.00 0.00 0.00
20260503052002 1 293 0.0 0.0 0.00 0.00 0.00
20260503051003 1 293 0.0 0.0 0.00 0.00 0.00
20260503050004 1 293 0.0 0.0 0.00 0.00 0.00
20260503045002 2 293 0.0 0.0 0.00 0.00 0.00
20260503044003 2 293 0.0 0.0 0.00 0.00 0.00
20260503043004 2 293 0.0 0.0 0.00 0.00 0.00
20260503042003 3 293 0.0 0.0 0.00 0.00 0.00
20260503041003 3 293 0.0 0.0 0.00 0.00 0.00
20260503040003 4 293 0.0 0.0 0.00 0.00 0.00
20260503035003 5 293 0.0 0.0 0.00 0.00 0.00
20260503034026 4 293 0.0 0.0 0.00 0.00 0.00
20260503033003 3 293 0.0 0.0 0.00 0.00 0.00
20260503032003 3 293 0.0 0.0 0.00 0.00 0.00
20260503031002 3 293 0.0 0.0 0.00 0.00 0.00
20260503030003 3 293 0.0 0.0 0.00 0.00 0.00
20260503025003 3 293 0.0 0.0 0.00 0.00 0.00
20260503024002 3 293 0.0 0.0 0.00 0.00 0.00
20260503023003 3 293 0.0 0.0 0.00 0.00 0.00
20260503022003 3 293 0.0 0.0 0.00 0.00 0.00
20260503021004 4 293 0.0 0.0 0.00 0.00 0.00
20260503020003 5 293 0.0 0.0 0.00 0.00 0.00
20260503015003 5 293 0.0 0.0 0.00 0.00 0.00
20260503014004 5 293 0.0 0.0 0.00 0.00 0.00
20260503013003 6 293 0.0 0.0 0.00 0.00 0.00
20260503012024 7 293 0.0 0.0 0.00 0.00 0.00
20260503011004 7 293 0.0 0.0 0.00 0.00 0.00
20260503010003 7 293 0.0 0.0 0.00 0.00 0.00
20260503005004 7 293 0.0 0.0 0.00 0.00 0.00
20260503004002 7 293 0.0 0.0 0.00 0.00 0.00
20260503003023 7 293 0.0 0.0 0.00 0.00 0.00
20260503002003 8 293 0.0 0.0 0.00 0.00 0.00
20260503001002 9 293 0.0 0.0 0.00 0.00 0.00
20260503000003 10 293 0.0 0.0 0.00 0.00 0.00
20260502235003 10 293 0.0 8.0 0.00 0.00 0.00
20260502234004 11 269 0.0 6.4 0.00 0.00 0.00
20260502233003 11 326 0.0 11.3 0.00 0.00 0.00
20260502232004 12 277 0.0 12.9 0.00 0.00 0.00
20260502231002 12 334 1.6 14.5 0.00 0.00 0.00
20260502230002 12 266 0.0 11.3 0.00 0.00 0.00
20260502225003 12 249 0.0 16.1 0.00 0.00 0.00
20260502224002 12 348 1.6 12.9 0.00 0.00 0.00
20260502223003 12 330 1.6 8.0 0.00 0.00 0.00
20260502222003 12 282 1.6 9.7 0.00 0.00 0.00
20260502221045 13 301 4.8 9.7 0.00 0.00 0.00
20260502220004 13 314 3.2 16.1 0.00 0.00 0.00
20260502215003 15 311 3.2 12.9 0.00 0.00 0.00
20260502214003 15 1 3.2 17.7 0.00 0.00 0.00
20260502213002 15 332 3.2 14.5 0.00 0.00 0.00
20260502212004 13 354 3.2 14.5 0.00 0.00 0.00
20260502211003 12 317 8.0 19.3 0.00 0.00 0.00
20260502210002 12 320 6.4 16.1 0.00 0.00 0.00
20260502205003 12 323 3.2 17.7 0.00 0.00 0.00
20260502204004 12 338 8.0 17.7 0.00 0.00 0.00
20260502203003 12 327 0.0 17.7 0.00 0.00 0.00
20260502201003 12 329 4.8 14.5 0.00 0.00 0.00